St. Augustine, FL

4:04 AM EDT on March 30, 2017 (GMT -0400)
Saint Augustine

Weather History for KSGJ - December, 2012

Change the Weather History Date:

Sunday, December 30, 2012

  Actual Average Record
Temperature  
Mean Temperature 46 °F -  
Max Temperature 55 °F 61 °F 81 °F (2015)
Min Temperature 37 °F 44 °F 32 °F (2000)
Degree Days  
Heating Degree Days 19    
Moisture  
Dew Point 36 °F    
Average Humidity 68    
Maximum Humidity 77    
Minimum Humidity 61    
Precipitation  
Precipitation 0.00 in - - ()
Sea Level Pressure  
Sea Level Pressure 30.36 in    
Wind  
Wind Speed 11 mph (North)    
Max Wind Speed 16 mph    
Max Gust Speed 23 mph    
Visibility 10 miles    
Events      
Averages and records for this station are not official NWS values.
T = Trace of Precipitation, MM = Missing Value Source: NWS Daily Summary

Daily Weather History Graph

Daily Weather History Graph

Search for Another Location

Airport or City:

Trip Planner

Search our weather history database for the weather conditions in past years. The results will help you decide how hot, cold, wet, or windy it might be!

Date:

Astronomy

Dec. 30, 2012 Rise Set
Actual Time 7:20 AM EST 5:35 PM EST
Civil Twilight 6:54 AM EST 6:01 PM EST
Nautical Twilight 6:24 AM EST 6:31 PM EST
Astronomical Twilight 5:55 AM EST 7:00 PM EST
Moon 7:54 PM EST 8:38 AM EST
Length of Visible Light 11h 07m
Length of Day
10h 14m
Waning Gibbous, 95% of the Moon is Illuminated
Dec 30
Waning Gibbous
Jan 4
Last Quarter
Jan 11
New
Jan 18
First Quarter
Jan 26
Full

Hourly Weather History & Observations

Time (EST) Temp. Windchill Dew Point Humidity Pressure Visibility Wind Dir Wind Speed Gust Speed Precip Events Conditions
12:58 AM 44.1 °F 38.1 °F 33.1 °F 65% 30.20 in 10.0 mi NW 11.5 mph 17.3 mph N/A   Partly Cloudy
1:58 AM 43.0 °F 35.7 °F 30.9 °F 62% 30.24 in 10.0 mi NW 15.0 mph 23.0 mph N/A   Clear
2:58 AM 41.0 °F 34.3 °F 30.9 °F 67% 30.25 in 10.0 mi NW 11.5 mph - N/A   Clear
3:58 AM 39.9 °F 34.5 °F 30.0 °F 68% 30.26 in 10.0 mi NNW 8.1 mph - N/A   Clear
4:58 AM 39.0 °F 34.0 °F 28.9 °F 67% 30.27 in 10.0 mi NW 6.9 mph - N/A   Clear
5:58 AM 37.9 °F 32.7 °F 30.0 °F 73% 30.30 in 10.0 mi NW 6.9 mph - N/A   Clear
6:58 AM 37.0 °F 31.6 °F 30.0 °F 76% 30.32 in 10.0 mi NW 6.9 mph - N/A   Clear
7:58 AM 37.0 °F 32.4 °F 30.0 °F 76% 30.34 in 10.0 mi NW 5.8 mph - N/A   Clear
8:58 AM 39.9 °F 32.1 °F 30.0 °F 68% 30.37 in 10.0 mi NNW 13.8 mph - N/A   Partly Cloudy
9:58 AM 43.0 °F 35.7 °F 30.9 °F 62% 30.40 in 10.0 mi NNW 15.0 mph - N/A   Partly Cloudy
10:25 AM 42.8 °F 36.6 °F 32.0 °F 66% 30.40 in 10.0 mi North 11.5 mph - N/A   Mostly Cloudy
10:42 AM 44.6 °F 37.8 °F 33.8 °F 66% 30.41 in 10.0 mi North 15.0 mph - N/A   Scattered Clouds
11:02 AM 44.6 °F 38.4 °F 33.8 °F 66% 30.41 in 10.0 mi NNW 12.7 mph - N/A   Overcast
11:18 AM 44.6 °F 38.4 °F 33.8 °F 66% 30.41 in 10.0 mi NNW 12.7 mph 20.7 mph N/A   Scattered Clouds
12:02 PM 46.4 °F 40.4 °F 35.6 °F 66% 30.40 in 10.0 mi North 13.8 mph 18.4 mph N/A   Overcast
12:58 PM 48.9 °F - 36.0 °F 61% 30.39 in 10.0 mi North 16.1 mph - N/A   Mostly Cloudy
1:10 PM 48.2 °F - 37.4 °F 66% 30.38 in 10.0 mi North 13.8 mph 19.6 mph N/A   Scattered Clouds
1:33 PM 48.2 °F - 35.6 °F 62% 30.39 in 10.0 mi North 13.8 mph - N/A   Mostly Cloudy
1:58 PM 48.9 °F - 37.0 °F 64% 30.39 in 10.0 mi North 12.7 mph - N/A   Mostly Cloudy
2:36 PM 50.0 °F - 37.4 °F 62% 30.39 in 10.0 mi NNE 10.4 mph - N/A   Scattered Clouds
2:46 PM 50.0 °F - 37.4 °F 62% 30.39 in 10.0 mi NNE 10.4 mph - N/A   Mostly Cloudy
2:58 PM 50.0 °F - 37.9 °F 63% 30.39 in 10.0 mi North 12.7 mph - N/A   Mostly Cloudy
3:22 PM 50.0 °F - 37.4 °F 62% 30.39 in 10.0 mi NNE 12.7 mph - N/A   Scattered Clouds
3:58 PM 50.0 °F - 37.9 °F 63% 30.39 in 10.0 mi North 12.7 mph - N/A   Clear
4:58 PM 48.9 °F - 37.9 °F 66% 30.38 in 10.0 mi NNE 10.4 mph - N/A   Clear
5:58 PM 48.0 °F - 39.0 °F 71% 30.38 in 10.0 mi North 9.2 mph - N/A   Clear
6:58 PM 48.9 °F - 41.0 °F 74% 30.38 in 10.0 mi NNE 10.4 mph - N/A   Partly Cloudy
7:41 PM 50.0 °F - 42.8 °F 76% 30.39 in 10.0 mi NE 10.4 mph - N/A   Mostly Cloudy
7:58 PM 50.0 °F - 42.1 °F 74% 30.39 in 10.0 mi NE 9.2 mph - N/A   Mostly Cloudy
8:58 PM 52.0 °F - 44.1 °F 74% 30.39 in 10.0 mi ENE 11.5 mph - N/A   Overcast
9:58 PM 54.0 °F - 45.0 °F 72% 30.39 in 10.0 mi NNE 13.8 mph - N/A   Overcast
10:58 PM 55.0 °F - 46.9 °F 74% 30.40 in 10.0 mi NE 9.2 mph - N/A   Overcast
11:49 PM 55.4 °F - 48.2 °F 77% 30.39 in 10.0 mi NE 8.1 mph - N/A   Overcast
11:58 PM 53.1 °F - 45.0 °F 74% 30.38 in 10.0 mi West 3.5 mph - N/A   Overcast